Weather History for Topeka, KS

Change the Weather History Date:

Thursday, December 6, 2012

  Actual Average Record
Temperature  
Mean Temperature 47 °F 34 °F  
Max Temperature 53 °F 44 °F 77 °F (1939)
Min Temperature 40 °F 24 °F -4 °F (1950)
Degree Days  
Heating Degree Days 18 31  
Month to date heating degree days 83 179  
Since 1 July heating degree days 970 1173  
Cooling Degree Days 0 0  
Month to date cooling degree days 0 0  
Year to date cooling degree days 1978 1422  
Moisture  
Dew Point 37 °F    
Average Humidity 64    
Maximum Humidity 71    
Minimum Humidity 57    
Precipitation  
Precipitation 0.00 in 0.05 in 1.18 in (1998)
Month to date precipitation T 0.31  
Year to date precipitation 22.27 35.42  
Snow  
Snow 0.00 in 0.10 in 4.10 in (1891)
Month to date snowfall 0.0 0.8  
Year to date snowfall 3.0 13.4  
Since 1 July snowfall 0.0 2.1  
Snow Depth 0.00 in    
Sea Level Pressure  
Sea Level Pressure 29.93 in    
Wind  
Wind Speed 4 mph (ENE)    
Max Wind Speed 10 mph    
Max Gust Speed 15 mph    
Visibility 10 miles    
Events      
T = Trace of Precipitation, MM = Missing Value Source: NWS Daily Summary

Daily Weather History Graph

Daily Weather History Graph

Search for Another Location

Airport:

Trip Planner

Search our weather history database for the weather conditions in past years. The results will help you decide how hot, cold, wet, or windy it might be!

Date:

Astronomy

Dec. 06, 2012 Rise Set
Actual Time 7:27 AM CST 4:59 PM CST
Civil Twilight 6:57 AM CST 5:29 PM CST
Nautical Twilight 6:24 AM CST 6:02 PM CST
Astronomical Twilight 5:52 AM CST 6:35 PM CST
Moon No Moon Rise 12:23 PM CST (12/6)
Length of Visible Light 10h 31m
Length of Day
9h 32m
Waning Gibbous, 49% of the Moon is Illuminated
Dec 6
Waning Gibbous
Dec 13
New
Dec 19
First Quarter
Dec 28
Full
Jan 4
Last Quarter

Hourly Weather History & Observations

Time (CST) Temp. Windchill Dew Point Humidity Pressure Visibility Wind Dir Wind Speed Gust Speed Precip Events Conditions
12:53 AM 42.1 °F 38.4 °F 28.9 °F 60% 29.98 in 10.0 mi SE 5.8 mph - N/A   Clear
1:53 AM 43.0 °F 41.3 °F 30.0 °F 60% 29.98 in 10.0 mi SE 3.5 mph - N/A   Clear
2:53 AM 44.1 °F - 30.0 °F 58% 29.97 in 10.0 mi Calm Calm - N/A   Clear
3:53 AM 42.1 °F 38.4 °F 30.9 °F 65% 29.95 in 10.0 mi SE 5.8 mph - N/A   Clear
4:53 AM 46.0 °F 42.5 °F 33.1 °F 61% 29.93 in 10.0 mi South 6.9 mph - N/A   Clear
5:53 AM 46.0 °F 43.1 °F 34.0 °F 63% 29.93 in 10.0 mi South 5.8 mph - N/A   Clear
6:53 AM 46.0 °F 42.5 °F 34.0 °F 63% 29.93 in 10.0 mi SSE 6.9 mph - N/A   Clear
7:53 AM 45.0 °F 43.5 °F 35.1 °F 68% 29.95 in 10.0 mi ESE 3.5 mph - N/A   Clear
8:53 AM 46.0 °F 43.1 °F 35.1 °F 66% 29.94 in 10.0 mi SE 5.8 mph - N/A   Clear
9:53 AM 48.0 °F - 36.0 °F 63% 29.94 in 10.0 mi Calm Calm - N/A   Clear
10:53 AM 48.9 °F - 37.9 °F 66% 29.92 in 10.0 mi SSE 8.1 mph - N/A   Overcast
11:53 AM 50.0 °F - 37.9 °F 63% 29.93 in 10.0 mi Calm Calm - N/A   Mostly Cloudy
12:53 PM 52.0 °F - 39.0 °F 61% 29.90 in 10.0 mi Calm Calm - N/A   Clear
1:53 PM 53.1 °F - 39.9 °F 61% 29.88 in 10.0 mi Calm Calm - N/A   Clear
2:53 PM 53.1 °F - 39.9 °F 61% 29.87 in 10.0 mi Calm Calm - N/A   Clear
3:53 PM 52.0 °F - 41.0 °F 66% 29.88 in 10.0 mi NNE 3.5 mph - N/A   Clear
4:15 PM 51.8 °F - 41.0 °F 67% 29.89 in 10.0 mi Calm Calm - N/A   Mostly Cloudy
4:53 PM 50.0 °F - 39.9 °F 68% 29.90 in 10.0 mi North 5.8 mph - N/A   Scattered Clouds
5:18 PM 51.8 °F - 41.0 °F 67% 29.91 in 10.0 mi NNW 5.8 mph - N/A   Mostly Cloudy
5:53 PM 50.0 °F - 41.0 °F 71% 29.92 in 10.0 mi North 8.1 mph - N/A   Overcast
6:53 PM 50.0 °F - 39.9 °F 68% 29.92 in 10.0 mi NNE 4.6 mph - N/A   Overcast
7:04 PM 50.0 °F - 39.2 °F 66% 29.92 in 10.0 mi North 4.6 mph - N/A   Overcast
7:53 PM 50.0 °F - 39.9 °F 68% 29.94 in 10.0 mi Calm Calm - N/A   Overcast
8:31 PM 48.2 °F - 39.2 °F 71% 29.92 in 10.0 mi North 6.9 mph - N/A   Overcast
8:53 PM 48.9 °F - 39.9 °F 71% 29.93 in 10.0 mi North 9.2 mph - N/A   Overcast
9:53 PM 48.0 °F - 37.0 °F 66% 29.94 in 10.0 mi NNW 6.9 mph - N/A   Overcast
10:53 PM 48.0 °F - 37.0 °F 66% 29.94 in 10.0 mi North 3.5 mph - N/A   Overcast
11:53 PM 46.9 °F - 37.0 °F 68% 29.94 in 10.0 mi NNE 5.8 mph - N/A   Overcast